Simultaneous Nadir Overpasses (SNOs) Predictions

Prediction of SNOs between AQUA and NOAA-19 Satellite Orbit:

Table of predicted SNOs for the next 14.0 days since TLE Epoch: 3/23/2024
Index Date (AQUA) Time (AQUA) Lat,Lon (AQUA) SZA (AQUA ) Date (NOAA-19) Time (NOAA-19) Lat,Lon (NOAA-19) SZA (NOAA-19 ) Distance(km) Time Diff (sec)
1 03/24/2024 08:21:52 75.73, 50.78 74.05 03/24/2024 08:20:40 75.67, 50.12 74.01 19.56 72
2 03/24/2024 09:11:17 -75.87,-141.98 105.82 03/24/2024 09:11:31 -75.84,-142.01 105.85 3.24 14
3 03/26/2024 13:02:05 75.85, -19.57 73.31 03/26/2024 13:01:42 75.82, -19.58 73.28 2.95 23
4 03/26/2024 13:51:28 -75.89, 147.97 106.67 03/26/2024 13:52:36 -75.87, 147.87 106.69 3.18 68
5 03/28/2024 16:52:50 -75.79, 102.95 107.61 03/28/2024 16:51:45 -75.79, 102.85 107.60 2.98 65
6 03/28/2024 17:42:15 75.88, -89.68 72.48 03/28/2024 17:42:46 75.87, -89.62 72.47 2.25 31
7 03/30/2024 21:32:59 -75.84, 32.81 108.42 03/30/2024 21:32:49 -75.84, 32.81 108.41 0.17 10
8 03/30/2024 22:22:34 76.42,-161.41 72.21 03/30/2024 22:23:38 76.44,-157.73 72.14 96.08 64
9 04/02/2024 01:23:43 75.82, 155.20 70.74 04/02/2024 01:22:58 75.83, 155.28 70.74 2.19 45
10 04/02/2024 02:13:06 -75.85, -37.24 109.25 04/02/2024 02:13:53 -75.88, -37.26 109.23 2.82 47
11 04/04/2024 05:14:18 -75.46, -81.36 110.48 04/04/2024 05:13:10 -75.40, -83.60 110.48 63.12 68
12 04/04/2024 06:03:49 75.86, 85.10 69.93 04/04/2024 06:04:02 75.83, 85.10 69.91 2.81 13



Historial Predications of SNOs between AQUA and NOAA-19
